EW8359 Weather Reports


Display with metric or nautical units.
time (UTC)temp
F
wind
direction
speed
MPH
gust
MPH
rain 1hr
in
rain 24hr
in
rain mn
in
humidity
%
barometer
mb
20260831150015 70 96 1.0 9.0 0.00 0.01 0.00 51 1018.3
20260831144517 70 9 2.0 7.0 0.00 0.01 0.00 52 1018.5
20260831143007 69 5 2.0 5.0 0.00 0.01 0.00 51 1018.7
20260831141503 68 50 2.0 7.0 0.00 0.01 0.00 53 1018.8
20260831140108 67 19 1.0 6.0 0.00 0.01 0.00 59 1018.7
20260831134600 65 43 3.0 9.0 0.00 0.01 0.00 60 1018.7
20260831133055 65 52 3.0 5.0 0.00 0.01 0.00 64 1018.5
20260831131552 65 28 2.0 4.0 0.00 0.01 0.00 68 1018.4
20260831130053 64 63 1.0 5.0 0.00 0.01 0.00 68 1018.4
20260831124551 65 44 1.0 3.0 0.00 0.01 0.00 70 1018.3
20260831123048 64 339 1.0 3.0 0.00 0.01 0.00 71 1018.3
20260831121544 61 296 0.0 2.0 0.00 0.01 0.00 83 1018.2
20260831120041 56 297 0.0 2.0 0.00 0.01 0.00 89 1018.1
20260831114541 54 287 0.0 1.0 0.00 0.01 0.00 90 1018.1
20260831113040 53 287 0.0 1.0 0.00 0.01 0.00 90 1018.1
20260831111602 52 287 0.0 1.0 0.00 0.01 0.00 89 1018.1
20260831110050 52 287 0.0 1.0 0.00 0.01 0.00 89 1017.9
20260831104535 52 287 0.0 1.0 0.00 0.01 0.00 88 1017.8
20260831103033 51 287 0.0 1.0 0.00 0.01 0.00 88 1017.6
20260831101531 52 287 0.0 0.0 0.00 0.01 0.00 88 1017.5
20260831100028 52 287 0.0 1.0 0.00 0.01 0.00 87 1017.5
20260831094529 53 287 0.0 1.0 0.00 0.01 0.00 87 1017.2
20260831093024 54 287 0.0 2.0 0.00 0.01 0.00 87 1017.1
20260831091521 54 287 0.0 1.0 0.00 0.01 0.00 87 1017.0
20260831090020 54 287 0.0 1.0 0.00 0.01 0.00 87 1016.9
20260831084532 54 288 0.0 2.0 0.00 0.01 0.00 87 1016.6
20260831083016 54 284 0.0 2.0 0.00 0.01 0.00 87 1016.6
20260831081521 55 285 0.0 1.0 0.00 0.01 0.00 87 1016.5
20260831080011 55 285 0.0 0.0 0.00 0.01 0.00 86 1016.5
20260831074529 56 285 0.0 1.0 0.00 0.01 0.00 86 1016.3
20260831073011 57 285 0.0 3.0 0.00 0.01 0.00 86 1016.3
20260831071505 57 254 0.0 2.0 0.00 0.01 0.00 87 1016.3
20260831070004 57 259 0.0 2.0 0.00 0.01 0.00 87 1016.1
20260831064507 57 300 0.0 3.0 0.00 0.01 0.00 87 1016.0
20260831063001 56 319 0.0 2.0 0.00 0.01 0.00 87 1015.8
20260831061600 56 49 0.0 2.0 0.00 0.01 0.00 87 1015.7
20260831060112 56 22 0.0 2.0 0.00 0.01 0.00 87 1015.6
20260831054556 56 41 0.0 2.0 0.00 0.01 0.00 87 1015.5
20260831053053 57 41 0.0 2.0 0.00 0.01 0.00 87 1015.5
20260831051552 57 41 0.0 2.0 0.00 0.01 0.00 87 1015.4
20260831050103 57 41 0.0 1.0 0.00 0.01 0.00 86 1015.1
20260831044547 58 41 0.0 1.0 0.00 0.01 0.00 86 1015.2
20260831043049 58 41 0.0 1.0 0.00 0.01 0.00 84 1015.1
20260831041547 59 41 0.0 1.0 0.00 0.01 0.00 83 1015.2
20260831040048 60 41 0.0 2.0 0.00 0.01 0.00 80 1015.2
20260831034540 62 41 0.0 1.0 0.00 0.01 0.01 77 1015.1
20260831033036 63 41 0.0 4.0 0.00 0.01 0.01 74 1015.1
20260831031536 64 319 0.0 4.0 0.00 0.01 0.01 72 1015.0
20260831030045 65 355 1.0 8.0 0.00 0.01 0.01 72 1015.3
20260831024536 66 5 4.0 10.0 0.00 0.01 0.01 72 1015.4
20260831023035 66 40 3.0 16.0 0.01 0.01 0.01 81 1015.4
20260831021535 66 5 1.0 9.0 0.01 0.01 0.01 85 1014.7
20260831020034 66 202 1.0 4.0 0.01 0.01 0.01 84 1014.3
20260831014536 67 175 2.0 5.0 0.01 0.01 0.01 83 1014.3
20260831013033 67 184 4.0 13.0 0.00 0.00 0.00 81 1014.1
20260831011538 67 218 0.0 2.0 0.00 0.00 0.00 81 1013.8
20260831010032 67 218 0.0 1.0 0.00 0.00 0.00 81 1013.6
20260831004531 67 218 0.0 2.0 0.00 0.00 0.00 80 1013.3
20260831003030 67 218 0.0 1.0 0.00 0.00 0.00 79 1013.2
20260831001530 67 218 0.0 1.0 0.00 0.00 0.00 79 1013.2
20260831000024 68 219 0.0 2.0 0.00 0.00 0.00 79 1013.0
20260830234523 68 219 0.0 1.0 0.00 0.00 0.00 79 1012.9
20260830233032 68 219 0.0 1.0 0.00 0.00 0.00 78 1012.7
20260830231523 69 219 0.0 2.0 0.00 0.00 0.00 76 1012.8
20260830230025 69 219 0.0 1.0 0.00 0.00 0.00 75 1012.8
20260830224520 70 219 0.0 1.0 0.00 0.00 0.00 74 1012.8
20260830223017 71 219 0.0 3.0 0.00 0.00 0.00 71 1013.0
20260830221517 71 304 0.0 1.0 0.00 0.00 0.00 70 1013.2
20260830220028 72 304 0.0 4.0 0.00 0.00 0.00 66 1013.0
20260830214518 73 178 1.0 3.0 0.00 0.00 0.00 64 1013.1
20260830213019 73 207 2.0 4.0 0.00 0.00 0.00 60 1013.2
20260830211513 74 217 0.0 6.0 0.00 0.00 0.00 61 1013.2
20260830210020 74 175 2.0 7.0 0.00 0.00 0.00 62 1013.4
20260830204512 74 255 1.0 5.0 0.00 0.00 0.00 60 1013.5
20260830203009 72 201 1.0 4.0 0.00 0.00 0.00 67 1013.6
20260830201509 72 223 1.0 4.0 0.00 0.00 0.00 67 1013.6
20260830200008 71 171 2.0 5.0 0.00 0.00 0.00 69 1013.6
20260830194507 72 217 0.0 5.0 0.00 0.00 0.00 69 1013.8
20260830193003 71 218 0.0 4.0 0.00 0.00 0.00 71 1014.0
20260830191507 71 234 1.0 3.0 0.00 0.00 0.00 74 1014.2
20260830190111 71 230 1.0 4.0 0.00 0.00 0.00 77 1014.3
20260830184559 70 229 1.0 3.0 0.00 0.00 0.00 79 1014.5
20260830183056 69 181 1.0 4.0 0.00 0.00 0.00 82 1014.8
20260830181656 69 251 0.0 4.0 0.00 0.00 0.00 80 1015.0
20260830180056 68 137 0.0 3.0 0.00 0.00 0.00 84 1015.2
20260830174557 68 264 1.0 6.0 0.00 0.00 0.00 82 1015.4
20260830173053 69 181 0.0 3.0 0.00 0.00 0.00 82 1015.4
20260830171552 69 210 0.0 1.0 0.00 0.00 0.00 80 1015.5
20260830170152 72 150 0.0 2.0 0.00 0.00 0.00 74 1015.1
20260830164549 73 273 1.0 10.0 0.00 0.00 0.00 64 1015.6
20260830163048 74 221 2.0 7.0 0.00 0.00 0.00 62 1015.6
20260830161559 74 236 2.0 10.0 0.00 0.00 0.00 61 1015.6
20260830160048 75 219 4.0 7.0 0.00 0.00 0.00 58 1015.8
20260830154545 75 243 3.0 11.0 0.00 0.00 0.00 60 1015.7
20260830153045 76 187 2.0 9.0 0.00 0.00 0.00 59 1015.7
20260830151542 76 251 2.0 5.0 0.00 0.00 0.00 56 1015.8